Weather History for Breckenridge, TX

Change the Weather History Date:

Monday, November 26, 2012

  Actual Average (KABI) Record (KABI)
Temperature  
Mean Temperature 55 °F 50 °F  
Max Temperature 64 °F 62 °F 86 °F (1965)
Min Temperature 46 °F 39 °F 16 °F (1993)
Degree Days  
Heating Degree Days 10 15  
Month to date heating degree days 266  
Since 1 July heating degree days 370  
Cooling Degree Days 0 0  
Month to date cooling degree days 15  
Year to date cooling degree days 2404  
Growing Degree Days 5 (Base 50)    
Moisture  
Dew Point 40 °F    
Average Humidity 54    
Maximum Humidity 88    
Minimum Humidity 30    
Precipitation  
Precipitation 0.00 in 0.04 in 2.14 in (1888)
Month to date precipitation 1.26  
Year to date precipitation 23.44  
Sea Level Pressure  
Sea Level Pressure 30.03 in    
Wind  
Wind Speed 11 mph (NW)    
Max Wind Speed 20 mph    
Max Gust Speed 28 mph    
Visibility 10 miles    
Events      
T = Trace of Precipitation, MM = Missing Value Source: NWS Daily Summary

Daily Weather History Graph

Daily Weather History Graph

Search for Another Location

Airport:

Trip Planner

Search our weather history database for the weather conditions in past years. The results will help you decide how hot, cold, wet, or windy it might be!

Date:

Astronomy

Nov. 26, 2012 Rise Set
Actual Time 7:15 AM CST 5:29 PM CST
Civil Twilight 6:49 AM CST 5:56 PM CST
Nautical Twilight 6:19 AM CST 6:26 PM CST
Astronomical Twilight 5:49 AM CST 6:56 PM CST
Moon 4:20 PM CST (11/26) 5:31 AM CST (11/26)
Length of Visible Light 11h 07m
Length of Day
10h 13m
Waxing Gibbous, 97% of the Moon is Illuminated
Nov 26
Waxing Gibbous
Nov 28
Full
Dec 6
Last Quarter
Dec 13
New
Dec 19
First Quarter

Hourly Weather History & Observations

Time (CST) Temp. Windchill Dew Point Humidity Pressure Visibility Wind Dir Wind Speed Gust Speed Precip Events Conditions
12:15 AM 64.4 °F - 48.2 °F 56% 29.84 in 10.0 mi SSW 15.0 mph 19.6 mph N/A   Clear
12:35 AM 62.6 °F - 48.2 °F 59% 29.84 in 10.0 mi SSW 15.0 mph 20.7 mph N/A   Clear
12:55 AM 62.6 °F - 48.2 °F 59% 29.84 in 10.0 mi SSW 12.7 mph - N/A   Clear
1:15 AM 62.6 °F - 50.0 °F 63% 29.84 in 10.0 mi SSW 11.5 mph - N/A   Clear
1:35 AM 62.6 °F - 50.0 °F 63% 29.84 in 10.0 mi SSW 10.4 mph - N/A   Clear
1:55 AM 62.6 °F - 50.0 °F 63% 29.84 in 10.0 mi SSW 10.4 mph - N/A   Clear
2:15 AM 60.8 °F - 50.0 °F 68% 29.84 in 10.0 mi SSW 9.2 mph - N/A   Clear
2:35 AM 60.8 °F - 50.0 °F 68% 29.84 in 10.0 mi SSW 9.2 mph - N/A   Clear
2:55 AM 59.0 °F - 50.0 °F 72% 29.84 in 10.0 mi SSW 8.1 mph - N/A   Clear
3:15 AM 59.0 °F - 50.0 °F 72% 29.85 in 10.0 mi SSW 3.5 mph - N/A   Clear
3:35 AM 59.0 °F - 50.0 °F 72% 29.84 in 10.0 mi South 5.8 mph - N/A   Clear
3:55 AM 55.4 °F - 50.0 °F 82% 29.84 in 10.0 mi SSW 6.9 mph - N/A   Clear
4:15 AM 55.4 °F - 48.2 °F 77% 29.84 in 10.0 mi South 4.6 mph - N/A   Clear
4:35 AM 55.4 °F - 50.0 °F 82% 29.85 in 10.0 mi SSW 3.5 mph - N/A   Clear
4:55 AM 57.2 °F - 50.0 °F 77% 29.85 in 10.0 mi SW 4.6 mph - N/A   Clear
5:15 AM 55.4 °F - 50.0 °F 82% 29.85 in 10.0 mi Calm Calm - N/A   Clear
5:35 AM 55.4 °F - 50.0 °F 82% 29.86 in 10.0 mi SSW 4.6 mph - N/A   Clear
6:35 AM 55.4 °F - 50.0 °F 82% 29.88 in 10.0 mi SW 8.1 mph - N/A   Clear
6:55 AM 55.4 °F - 50.0 °F 82% 29.88 in 10.0 mi SW 5.8 mph - N/A   Clear
7:15 AM 55.4 °F - 50.0 °F 82% 29.89 in 10.0 mi SW 5.8 mph - N/A   Clear
7:35 AM 55.4 °F - 50.0 °F 82% 29.91 in 10.0 mi WSW 6.9 mph - N/A   Clear
7:55 AM 55.4 °F - 50.0 °F 82% 29.92 in 10.0 mi West 4.6 mph - N/A   Clear
8:15 AM 55.4 °F - 51.8 °F 88% 29.93 in 10.0 mi SW 4.6 mph - N/A   Clear
8:35 AM 59.0 °F - 51.8 °F 77% 29.94 in 10.0 mi West 4.6 mph - N/A   Clear
8:55 AM 60.8 °F - 51.8 °F 72% 29.95 in 10.0 mi West 6.9 mph - N/A   Clear
9:15 AM 62.6 °F - 51.8 °F 68% 29.96 in 10.0 mi West 8.1 mph - N/A   Clear
9:35 AM 64.4 °F - 50.0 °F 59% 29.97 in 10.0 mi WNW 9.2 mph - N/A   Clear
9:55 AM 64.4 °F - 50.0 °F 59% 29.98 in 10.0 mi WNW 9.2 mph - N/A   Clear
10:15 AM 62.6 °F - 46.4 °F 55% 29.99 in 10.0 mi NNW 13.8 mph 17.3 mph N/A   Clear
10:35 AM 62.6 °F - 39.2 °F 42% 30.00 in 10.0 mi NNW 16.1 mph 23.0 mph N/A   Clear
11:15 AM 64.4 °F - 32.0 °F 30% 30.01 in 10.0 mi NW 10.4 mph - N/A   Clear
11:35 AM 64.4 °F - 32.0 °F 30% 30.01 in 10.0 mi NNW 12.7 mph 20.7 mph N/A   Clear
11:55 AM 64.4 °F - 33.8 °F 32% 30.01 in 10.0 mi NNW 15.0 mph 23.0 mph N/A   Clear
12:15 PM 62.6 °F - 33.8 °F 34% 30.00 in 10.0 mi North 13.8 mph 20.7 mph N/A   Clear
12:55 PM 62.6 °F - 33.8 °F 34% 30.00 in 10.0 mi North 15.0 mph 20.7 mph N/A   Clear
1:15 PM 64.4 °F - 33.8 °F 32% 30.01 in 10.0 mi NW 15.0 mph 21.9 mph N/A   Clear
1:35 PM 64.4 °F - 33.8 °F 32% 30.02 in 10.0 mi North 11.5 mph 21.9 mph N/A   Clear
1:55 PM 64.4 °F - 33.8 °F 32% 30.03 in 10.0 mi NNW 12.7 mph 19.6 mph N/A   Clear
2:15 PM 64.4 °F - 33.8 °F 32% 30.04 in 10.0 mi North 17.3 mph 21.9 mph N/A   Clear
2:35 PM 64.4 °F - 33.8 °F 32% 30.05 in 10.0 mi North 13.8 mph 23.0 mph N/A   Clear
3:15 PM 62.6 °F - 33.8 °F 34% 30.06 in 10.0 mi North 19.6 mph 23.0 mph N/A   Clear
3:35 PM 62.6 °F - 35.6 °F 37% 30.07 in 10.0 mi North 16.1 mph 24.2 mph N/A   Clear
3:55 PM 62.6 °F - 35.6 °F 37% 30.08 in 10.0 mi North 13.8 mph 21.9 mph N/A   Clear
4:15 PM 60.8 °F - 37.4 °F 42% 30.10 in 10.0 mi North 15.0 mph 23.0 mph N/A   Clear
4:35 PM 60.8 °F - 37.4 °F 42% 30.11 in 10.0 mi North 15.0 mph 26.5 mph N/A   Clear
4:55 PM 59.0 °F - 37.4 °F 45% 30.12 in 10.0 mi North 13.8 mph 20.7 mph N/A   Clear
5:15 PM 59.0 °F - 35.6 °F 42% 30.13 in 10.0 mi North 15.0 mph 24.2 mph N/A   Clear
5:35 PM 57.2 °F - 35.6 °F 44% 30.15 in 10.0 mi North 13.8 mph 24.2 mph N/A   Clear
5:55 PM 57.2 °F - 33.8 °F 41% 30.16 in 10.0 mi North 17.3 mph 25.3 mph N/A   Clear
6:15 PM 55.4 °F - 32.0 °F 41% 30.17 in 10.0 mi North 15.0 mph 20.7 mph N/A   Clear
6:35 PM 55.4 °F - 32.0 °F 41% 30.18 in 10.0 mi North 13.8 mph 20.7 mph N/A   Clear
6:55 PM 55.4 °F - 32.0 °F 41% 30.20 in 10.0 mi North 13.8 mph 23.0 mph N/A   Scattered Clouds
7:15 PM 53.6 °F - 32.0 °F 44% 30.21 in 10.0 mi NNE 15.0 mph 23.0 mph N/A   Overcast
7:35 PM 53.6 °F - 32.0 °F 44% 30.23 in 10.0 mi NNE 13.8 mph 23.0 mph N/A   Mostly Cloudy
7:55 PM 53.6 °F - 32.0 °F 44% 30.23 in 10.0 mi North 16.1 mph 21.9 mph N/A   Overcast
8:15 PM 53.6 °F - 30.2 °F 41% 30.24 in 10.0 mi NNE 15.0 mph 23.0 mph N/A   Overcast
8:35 PM 51.8 °F - 30.2 °F 44% 30.25 in 10.0 mi North 19.6 mph 27.6 mph N/A   Overcast
8:55 PM 51.8 °F - 30.2 °F 44% 30.26 in 10.0 mi NNE 12.7 mph 25.3 mph N/A   Overcast
9:35 PM 50.0 °F - 30.2 °F 47% 30.29 in 10.0 mi North 12.7 mph 24.2 mph N/A   Overcast
9:55 PM 50.0 °F - 30.2 °F 47% 30.29 in 10.0 mi North 13.8 mph 23.0 mph N/A   Overcast
10:15 PM 48.2 °F - 28.4 °F 46% 30.30 in 10.0 mi North 16.1 mph 21.9 mph N/A   Scattered Clouds
10:35 PM 48.2 °F - 28.4 °F 46% 30.30 in 10.0 mi North 17.3 mph 25.3 mph N/A   Scattered Clouds
10:55 PM 46.4 °F 41.1 °F 28.4 °F 50% 30.31 in 10.0 mi North 11.5 mph 21.9 mph N/A   Scattered Clouds
11:15 PM 46.4 °F 41.9 °F 28.4 °F 50% 30.31 in 10.0 mi North 9.2 mph 18.4 mph N/A   Clear
11:35 PM 46.4 °F 41.9 °F 28.4 °F 50% 30.32 in 10.0 mi North 9.2 mph 19.6 mph N/A   Clear
11:55 PM 46.4 °F 40.7 °F 28.4 °F 50% 30.34 in 10.0 mi North 12.7 mph 17.3 mph N/A   Clear